Location: Marne
(34.0056°N, 117.9064°W)
Time: 15:08:39
(UTC+00:00)

Cosmos 2227 Rocket - Pass Details

Date: 18 January 2020
Orbit: 840 x 844 km, 71.0° (Epoch: 25 February)

Event Time Altitude Azimuth Distance (km) Brightness Sun altitude
Rises 02:17:19 0° 183° (S) 3,381 5.6 -14.5°
Reaches altitude 10° 02:19:50 10° 177° (S) 2,449 4.8 -15.0°
Maximum altitude 02:25:10 46° 105° (ESE) 1,119 2.5 -16.1°
Enters shadow 02:28:39 21° 43° (NE) 1,813 3.4 -16.7°
